owner,sensor,date,latitude,longitude,vertical_datum,mass_concentration_of_oxygen_in_sea_water,qcFlag 
SCCF RECON,ioos:station:SCCF:13:1,2017-05-01T00:00:00Z,26.5255,-82.0032,2.65,-9999.0,1111122 
SCCF RECON,ioos:station:SCCF:13:1,2017-05-01T01:00:00Z,26.5255,-82.0032,2.548,-9999.0,1111122 
SCCF RECON,ioos:station:SCCF:13:1,2017-05-01T02:00:00Z,26.5255,-82.0032,2.439,-9999.0,1111122 
SCCF RECON,ioos:station:SCCF:13:1,2017-05-01T03:00:00Z,26.5255,-82.0032,2.334,-9999.0,1111122 
SCCF RECON,ioos:station:SCCF:13:1,2017-05-01T04:00:00Z,26.5255,-82.0032,2.24,-9999.0,1111122 
SCCF RECON,ioos:station:SCCF:13:1,2017-05-01T05:00:00Z,26.5255,-82.0032,2.19,-9999.0,1111122 
SCCF RECON,ioos:station:SCCF:13:1,2017-05-01T06:00:00Z,26.5255,-82.0032,2.267,-9999.0,1111122 
SCCF RECON,ioos:station:SCCF:13:1,2017-05-01T07:00:00Z,26.5255,-82.0032,2.389,-9999.0,1111122 
SCCF RECON,ioos:station:SCCF:13:1,2017-05-01T08:00:00Z,26.5255,-82.0032,2.45,-9999.0,1111122 
SCCF RECON,ioos:station:SCCF:13:1,2017-05-01T09:00:00Z,26.5255,-82.0032,2.52,-9999.0,1111122 
SCCF RECON,ioos:station:SCCF:13:1,2017-05-01T10:00:00Z,26.5255,-82.0032,2.57,-9999.0,1111122 
SCCF RECON,ioos:station:SCCF:13:1,2017-05-01T11:00:00Z,26.5255,-82.0032,2.6,-9999.0,1111122 
SCCF RECON,ioos:station:SCCF:13:1,2017-05-01T12:00:00Z,26.5255,-82.0032,2.63,-9999.0,1111122 
SCCF RECON,ioos:station:SCCF:13:1,2017-05-01T13:00:00Z,26.5255,-82.0032,2.645,-9999.0,1111122 
SCCF RECON,ioos:station:SCCF:13:1,2017-05-01T14:00:00Z,26.5255,-82.0032,2.607,-9999.0,1111122 
SCCF RECON,ioos:station:SCCF:13:1,2017-05-01T15:00:00Z,26.5255,-82.0032,2.578,-9999.0,1111122 
SCCF RECON,ioos:station:SCCF:13:1,2017-05-01T16:00:00Z,26.5255,-82.0032,2.579,-9999.0,1111122 
SCCF RECON,ioos:station:SCCF:13:1,2017-05-01T17:00:00Z,26.5255,-82.0032,2.572,-9999.0,1111122 
SCCF RECON,ioos:station:SCCF:13:1,2017-05-01T18:00:00Z,26.5255,-82.0032,2.619,-9999.0,1111122 
SCCF RECON,ioos:station:SCCF:13:1,2017-05-01T19:00:00Z,26.5255,-82.0032,2.691,-9999.0,1111122 
SCCF RECON,ioos:station:SCCF:13:1,2017-05-01T20:00:00Z,26.5255,-82.0032,2.73,-9999.0,1111122 
SCCF RECON,ioos:station:SCCF:13:1,2017-05-01T21:00:00Z,26.5255,-82.0032,2.751,-9999.0,1111122 
SCCF RECON,ioos:station:SCCF:13:1,2017-05-01T22:00:00Z,26.5255,-82.0032,2.75,-9999.0,1111122 
SCCF RECON,ioos:station:SCCF:13:1,2017-05-01T23:00:00Z,26.5255,-82.0032,2.71,-9999.0,1111122 
SCCF RECON,ioos:station:SCCF:13:1,2017-05-02T00:00:00Z,26.5255,-82.0032,2.64,-9999.0,1111122 
SCCF RECON,ioos:station:SCCF:13:1,2017-05-02T01:00:00Z,26.5255,-82.0032,2.54,-9999.0,1111122 
SCCF RECON,ioos:station:SCCF:13:1,2017-05-02T02:00:00Z,26.5255,-82.0032,2.452,-9999.0,1111122 
SCCF RECON,ioos:station:SCCF:13:1,2017-05-02T03:00:00Z,26.5255,-82.0032,2.37,-9999.0,1111122 
SCCF RECON,ioos:station:SCCF:13:1,2017-05-02T04:00:00Z,26.5255,-82.0032,2.3,-9999.0,1111122 
SCCF RECON,ioos:station:SCCF:13:1,2017-05-02T05:00:00Z,26.5255,-82.0032,2.24,-9999.0,1111122 
SCCF RECON,ioos:station:SCCF:13:1,2017-05-02T06:00:00Z,26.5255,-82.0032,2.214,-9999.0,1111122 
SCCF RECON,ioos:station:SCCF:13:1,2017-05-02T07:00:00Z,26.5255,-82.0032,2.28,-9999.0,1111122 
SCCF RECON,ioos:station:SCCF:13:1,2017-05-02T08:00:00Z,26.5255,-82.0032,2.37,-9999.0,1111122 
SCCF RECON,ioos:station:SCCF:13:1,2017-05-02T09:00:00Z,26.5255,-82.0032,2.46,-9999.0,1111122 
SCCF RECON,ioos:station:SCCF:13:1,2017-05-02T10:00:00Z,26.5255,-82.0032,2.51,-9999.0,1111122 
SCCF RECON,ioos:station:SCCF:13:1,2017-05-02T11:00:00Z,26.5255,-82.0032,2.61,-9999.0,1111122 
SCCF RECON,ioos:station:SCCF:13:1,2017-05-02T12:00:00Z,26.5255,-82.0032,2.62,-9999.0,1111122 
SCCF RECON,ioos:station:SCCF:13:1,2017-05-02T13:00:00Z,26.5255,-82.0032,2.61,-9999.0,1111122 
SCCF RECON,ioos:station:SCCF:13:1,2017-05-02T14:00:00Z,26.5255,-82.0032,2.597,-9999.0,1111122 
SCCF RECON,ioos:station:SCCF:13:1,2017-05-02T15:00:00Z,26.5255,-82.0032,2.586,-9999.0,1111122 
SCCF RECON,ioos:station:SCCF:13:1,2017-05-02T16:00:00Z,26.5255,-82.0032,2.56,-9999.0,1111122 
SCCF RECON,ioos:station:SCCF:13:1,2017-05-02T17:00:00Z,26.5255,-82.0032,2.54,-9999.0,1111122 
SCCF RECON,ioos:station:SCCF:13:1,2017-05-02T18:00:00Z,26.5255,-82.0032,2.54,-9999.0,1111122 
SCCF RECON,ioos:station:SCCF:13:1,2017-05-02T19:00:00Z,26.5255,-82.0032,2.561,-9999.0,1111122 
SCCF RECON,ioos:station:SCCF:13:1,2017-05-02T20:00:00Z,26.5255,-82.0032,2.602,-9999.0,1111122 
SCCF RECON,ioos:station:SCCF:13:1,2017-05-02T21:00:00Z,26.5255,-82.0032,2.64,-9999.0,1111122 
SCCF RECON,ioos:station:SCCF:13:1,2017-05-02T22:00:00Z,26.5255,-82.0032,2.67,-9999.0,1111122 
SCCF RECON,ioos:station:SCCF:13:1,2017-05-02T23:00:00Z,26.5255,-82.0032,2.67,-9999.0,1111122 
SCCF RECON,ioos:station:SCCF:13:1,2017-05-03T00:00:00Z,26.5255,-82.0032,2.67,-9999.0,1111122 
SCCF RECON,ioos:station:SCCF:13:1,2017-05-03T01:00:00Z,26.5255,-82.0032,2.65,-9999.0,1111122 
SCCF RECON,ioos:station:SCCF:13:1,2017-05-03T02:00:00Z,26.5255,-82.0032,2.57,-9999.0,1111122 
SCCF RECON,ioos:station:SCCF:13:1,2017-05-03T03:00:00Z,26.5255,-82.0032,2.47,-9999.0,1111122 
SCCF RECON,ioos:station:SCCF:13:1,2017-05-03T04:00:00Z,26.5255,-82.0032,2.38,-9999.0,1111122 
SCCF RECON,ioos:station:SCCF:13:1,2017-05-03T05:00:00Z,26.5255,-82.0032,2.29,-9999.0,1111122 
SCCF RECON,ioos:station:SCCF:13:1,2017-05-03T06:00:00Z,26.5255,-82.0032,2.21,-9999.0,1111122 
SCCF RECON,ioos:station:SCCF:13:1,2017-05-03T07:00:00Z,26.5255,-82.0032,2.2,-9999.0,1111122 
SCCF RECON,ioos:station:SCCF:13:1,2017-05-03T08:00:00Z,26.5255,-82.0032,2.23,-9999.0,1111122 
SCCF RECON,ioos:station:SCCF:13:1,2017-05-03T09:00:00Z,26.5255,-82.0032,2.34,-9999.0,1111122 
SCCF RECON,ioos:station:SCCF:13:1,2017-05-03T10:00:00Z,26.5255,-82.0032,2.4,-9999.0,1111122 
SCCF RECON,ioos:station:SCCF:13:1,2017-05-03T11:00:00Z,26.5255,-82.0032,2.45,-9999.0,1111122 
SCCF RECON,ioos:station:SCCF:13:1,2017-05-03T12:00:00Z,26.5255,-82.0032,2.51,-9999.0,1111122 
SCCF RECON,ioos:station:SCCF:13:1,2017-05-03T13:00:00Z,26.5255,-82.0032,2.561,-9999.0,1111122 
SCCF RECON,ioos:station:SCCF:13:1,2017-05-03T14:00:00Z,26.5255,-82.0032,2.579,-9999.0,1111122 
SCCF RECON,ioos:station:SCCF:13:1,2017-05-03T15:00:00Z,26.5255,-82.0032,2.57,-9999.0,1111122 
SCCF RECON,ioos:station:SCCF:13:1,2017-05-03T16:00:00Z,26.5255,-82.0032,2.53,-9999.0,1111122 
SCCF RECON,ioos:station:SCCF:13:1,2017-05-03T17:00:00Z,26.5255,-82.0032,2.481,-9999.0,1111122 
SCCF RECON,ioos:station:SCCF:13:1,2017-05-03T18:00:00Z,26.5255,-82.0032,2.43,-9999.0,1111122 
SCCF RECON,ioos:station:SCCF:13:1,2017-05-03T19:00:00Z,26.5255,-82.0032,2.39,-9999.0,1111122 
SCCF RECON,ioos:station:SCCF:13:1,2017-05-03T20:00:00Z,26.5255,-82.0032,2.408,-9999.0,1111122 
SCCF RECON,ioos:station:SCCF:13:1,2017-05-03T21:00:00Z,26.5255,-82.0032,2.48,-9999.0,1111122 
SCCF RECON,ioos:station:SCCF:13:1,2017-05-03T22:00:00Z,26.5255,-82.0032,2.54,-9999.0,1111122 
SCCF RECON,ioos:station:SCCF:13:1,2017-05-03T23:00:00Z,26.5255,-82.0032,2.58,-9999.0,1111122 
SCCF RECON,ioos:station:SCCF:13:1,2017-05-04T00:00:00Z,26.5255,-82.0032,2.6,-9999.0,1111122 
SCCF RECON,ioos:station:SCCF:13:1,2017-05-04T01:00:00Z,26.5255,-82.0032,2.63,-9999.0,1111122 
SCCF RECON,ioos:station:SCCF:13:1,2017-05-04T02:00:00Z,26.5255,-82.0032,2.64,-9999.0,1111122 
SCCF RECON,ioos:station:SCCF:13:1,2017-05-04T03:00:00Z,26.5255,-82.0032,2.61,-9999.0,1111122 
SCCF RECON,ioos:station:SCCF:13:1,2017-05-04T04:00:00Z,26.5255,-82.0032,2.512,-9999.0,1111122 
SCCF RECON,ioos:station:SCCF:13:1,2017-05-04T05:00:00Z,26.5255,-82.0032,2.41,-9999.0,1111122 
SCCF RECON,ioos:station:SCCF:13:1,2017-05-04T06:00:00Z,26.5255,-82.0032,2.339,-9999.0,1111122 
SCCF RECON,ioos:station:SCCF:13:1,2017-05-04T07:00:00Z,26.5255,-82.0032,2.26,-9999.0,1111122 
SCCF RECON,ioos:station:SCCF:13:1,2017-05-04T08:00:00Z,26.5255,-82.0032,2.229,-9999.0,1111122 
SCCF RECON,ioos:station:SCCF:13:1,2017-05-04T09:00:00Z,26.5255,-82.0032,2.26,-9999.0,1111122 
SCCF RECON,ioos:station:SCCF:13:1,2017-05-04T10:00:00Z,26.5255,-82.0032,2.36,-9999.0,1111122 
SCCF RECON,ioos:station:SCCF:13:1,2017-05-04T11:00:00Z,26.5255,-82.0032,2.44,-9999.0,1111122 
SCCF RECON,ioos:station:SCCF:13:1,2017-05-04T12:00:00Z,26.5255,-82.0032,2.53,-9999.0,1111122 
SCCF RECON,ioos:station:SCCF:13:1,2017-05-04T13:00:00Z,26.5255,-82.0032,2.591,-9999.0,1111122 
SCCF RECON,ioos:station:SCCF:13:1,2017-05-04T14:00:00Z,26.5255,-82.0032,2.62,-9999.0,1111122 
SCCF RECON,ioos:station:SCCF:13:1,2017-05-04T15:00:00Z,26.5255,-82.0032,2.679,-9999.0,1111122 
SCCF RECON,ioos:station:SCCF:13:1,2017-05-04T16:00:00Z,26.5255,-82.0032,2.711,-9999.0,1111122 
SCCF RECON,ioos:station:SCCF:13:1,2017-05-04T17:00:00Z,26.5255,-82.0032,2.62,-9999.0,1111122 
SCCF RECON,ioos:station:SCCF:13:1,2017-05-04T18:00:00Z,26.5255,-82.0032,2.51,-9999.0,1111122 
SCCF RECON,ioos:station:SCCF:13:1,2017-05-04T19:00:00Z,26.5255,-82.0032,2.48,-9999.0,1111122 
SCCF RECON,ioos:station:SCCF:13:1,2017-05-04T20:00:00Z,26.5255,-82.0032,2.436,-9999.0,1111122 
SCCF RECON,ioos:station:SCCF:13:1,2017-05-04T21:00:00Z,26.5255,-82.0032,2.432,-9999.0,1111122 
SCCF RECON,ioos:station:SCCF:13:1,2017-05-04T22:00:00Z,26.5255,-82.0032,2.479,-9999.0,1111122 
SCCF RECON,ioos:station:SCCF:13:1,2017-05-04T23:00:00Z,26.5255,-82.0032,2.55,-9999.0,1111122 
SCCF RECON,ioos:station:SCCF:13:1,2017-05-05T00:00:00Z,26.5255,-82.0032,2.61,-9999.0,1111122 
SCCF RECON,ioos:station:SCCF:13:1,2017-05-05T01:00:00Z,26.5255,-82.0032,2.611,-9999.0,1111122 
SCCF RECON,ioos:station:SCCF:13:1,2017-05-05T02:00:00Z,26.5255,-82.0032,2.592,-9999.0,1111122 
SCCF RECON,ioos:station:SCCF:13:1,2017-05-05T03:00:00Z,26.5255,-82.0032,2.563,-9999.0,1111122 
SCCF RECON,ioos:station:SCCF:13:1,2017-05-05T04:00:00Z,26.5255,-82.0032,2.521,-9999.0,1111122 
SCCF RECON,ioos:station:SCCF:13:1,2017-05-05T05:00:00Z,26.5255,-82.0032,2.486,-9999.0,1111122 
SCCF RECON,ioos:station:SCCF:13:1,2017-05-05T06:00:00Z,26.5255,-82.0032,2.453,-9999.0,1111122 
SCCF RECON,ioos:station:SCCF:13:1,2017-05-05T07:00:00Z,26.5255,-82.0032,2.408,-9999.0,1111122 
SCCF RECON,ioos:station:SCCF:13:1,2017-05-05T08:00:00Z,26.5255,-82.0032,2.347,-9999.0,1111122 
SCCF RECON,ioos:station:SCCF:13:1,2017-05-05T09:00:00Z,26.5255,-82.0032,2.27,-9999.0,1111122 
SCCF RECON,ioos:station:SCCF:13:1,2017-05-05T10:00:00Z,26.5255,-82.0032,2.368,-9999.0,1111122 
SCCF RECON,ioos:station:SCCF:13:1,2017-05-05T11:00:00Z,26.5255,-82.0032,2.442,-9999.0,1111122 
SCCF RECON,ioos:station:SCCF:13:1,2017-05-05T12:00:00Z,26.5255,-82.0032,2.49,-9999.0,1111122 
SCCF RECON,ioos:station:SCCF:13:1,2017-05-05T13:00:00Z,26.5255,-82.0032,2.6,-9999.0,1111122 
SCCF RECON,ioos:station:SCCF:13:1,2017-05-05T14:00:00Z,26.5255,-82.0032,2.655,-9999.0,1111122 
SCCF RECON,ioos:station:SCCF:13:1,2017-05-05T15:00:00Z,26.5255,-82.0032,2.68,-9999.0,1111122 
SCCF RECON,ioos:station:SCCF:13:1,2017-05-05T16:00:00Z,26.5255,-82.0032,2.66,-9999.0,1111122 
SCCF RECON,ioos:station:SCCF:13:1,2017-05-05T17:00:00Z,26.5255,-82.0032,2.559,-9999.0,1111122 
SCCF RECON,ioos:station:SCCF:13:1,2017-05-05T18:00:00Z,26.5255,-82.0032,2.465,-9999.0,1111122 
SCCF RECON,ioos:station:SCCF:13:1,2017-05-05T19:00:00Z,26.5255,-82.0032,2.407,-9999.0,1111122 
SCCF RECON,ioos:station:SCCF:13:1,2017-05-05T20:00:00Z,26.5255,-82.0032,2.339,-9999.0,1111122 
SCCF RECON,ioos:station:SCCF:13:1,2017-05-05T21:00:00Z,26.5255,-82.0032,2.28,-9999.0,1111122 
SCCF RECON,ioos:station:SCCF:13:1,2017-05-05T22:00:00Z,26.5255,-82.0032,2.245,-9999.0,1111122 
SCCF RECON,ioos:station:SCCF:13:1,2017-05-05T23:00:00Z,26.5255,-82.0032,2.306,-9999.0,1111122 
SCCF RECON,ioos:station:SCCF:13:1,2017-05-06T00:00:00Z,26.5255,-82.0032,2.388,-9999.0,1111122 
SCCF RECON,ioos:station:SCCF:13:1,2017-05-06T01:00:00Z,26.5255,-82.0032,2.451,-9999.0,1111122 
SCCF RECON,ioos:station:SCCF:13:1,2017-05-06T02:00:00Z,26.5255,-82.0032,2.51,-9999.0,1111122 
SCCF RECON,ioos:station:SCCF:13:1,2017-05-06T03:00:00Z,26.5255,-82.0032,2.576,-9999.0,1111122 
SCCF RECON,ioos:station:SCCF:13:1,2017-05-06T04:00:00Z,26.5255,-82.0032,2.613,-9999.0,1111122 
SCCF RECON,ioos:station:SCCF:13:1,2017-05-06T05:00:00Z,26.5255,-82.0032,2.6,-9999.0,1111122 
SCCF RECON,ioos:station:SCCF:13:1,2017-05-06T06:00:00Z,26.5255,-82.0032,2.492,-9999.0,1111122 
SCCF RECON,ioos:station:SCCF:13:1,2017-05-06T07:00:00Z,26.5255,-82.0032,2.394,-9999.0,1111122 
SCCF RECON,ioos:station:SCCF:13:1,2017-05-06T08:00:00Z,26.5255,-82.0032,2.331,-9999.0,1111122 
SCCF RECON,ioos:station:SCCF:13:1,2017-05-06T09:00:00Z,26.5255,-82.0032,2.28,-9999.0,1111122 
SCCF RECON,ioos:station:SCCF:13:1,2017-05-06T10:00:00Z,26.5255,-82.0032,2.217,-9999.0,1111122 
SCCF RECON,ioos:station:SCCF:13:1,2017-05-06T11:00:00Z,26.5255,-82.0032,2.19,-9999.0,1111122 
SCCF RECON,ioos:station:SCCF:13:1,2017-05-06T12:00:00Z,26.5255,-82.0032,2.25,-9999.0,1111122 
SCCF RECON,ioos:station:SCCF:13:1,2017-05-06T13:00:00Z,26.5255,-82.0032,2.389,-9999.0,1111122 
SCCF RECON,ioos:station:SCCF:13:1,2017-05-06T14:00:00Z,26.5255,-82.0032,2.48,-9999.0,1111122 
SCCF RECON,ioos:station:SCCF:13:1,2017-05-06T15:00:00Z,26.5255,-82.0032,2.52,-9999.0,1111122 
SCCF RECON,ioos:station:SCCF:13:1,2017-05-06T16:00:00Z,26.5255,-82.0032,2.531,-9999.0,1111122 
SCCF RECON,ioos:station:SCCF:13:1,2017-05-06T17:00:00Z,26.5255,-82.0032,2.453,-9999.0,1111122 
SCCF RECON,ioos:station:SCCF:13:1,2017-05-06T18:00:00Z,26.5255,-82.0032,2.364,-9999.0,1111122 
SCCF RECON,ioos:station:SCCF:13:1,2017-05-06T19:00:00Z,26.5255,-82.0032,2.298,-9999.0,1111122 
SCCF RECON,ioos:station:SCCF:13:1,2017-05-06T20:00:00Z,26.5255,-82.0032,2.24,-9999.0,1111122 
SCCF RECON,ioos:station:SCCF:13:1,2017-05-06T21:00:00Z,26.5255,-82.0032,2.19,-9999.0,1111122 
SCCF RECON,ioos:station:SCCF:13:1,2017-05-06T22:00:00Z,26.5255,-82.0032,2.16,-9999.0,1111122 
SCCF RECON,ioos:station:SCCF:13:1,2017-05-06T23:00:00Z,26.5255,-82.0032,2.179,-9999.0,1111122 
SCCF RECON,ioos:station:SCCF:13:1,2017-05-07T00:00:00Z,26.5255,-82.0032,2.246,-9999.0,1111122 
SCCF RECON,ioos:station:SCCF:13:1,2017-05-07T01:00:00Z,26.5255,-82.0032,2.35,-9999.0,1111122 
SCCF RECON,ioos:station:SCCF:13:1,2017-05-07T02:00:00Z,26.5255,-82.0032,2.43,-9999.0,1111122 
SCCF RECON,ioos:station:SCCF:13:1,2017-05-07T03:00:00Z,26.5255,-82.0032,2.49,-9999.0,1111122 
SCCF RECON,ioos:station:SCCF:13:1,2017-05-07T04:00:00Z,26.5255,-82.0032,2.54,-9999.0,1111122 
SCCF RECON,ioos:station:SCCF:13:1,2017-05-07T05:00:00Z,26.5255,-82.0032,2.54,-9999.0,1111122 
SCCF RECON,ioos:station:SCCF:13:1,2017-05-07T06:00:00Z,26.5255,-82.0032,2.49,-9999.0,1111122 
SCCF RECON,ioos:station:SCCF:13:1,2017-05-07T07:00:00Z,26.5255,-82.0032,2.41,-9999.0,1111122 
SCCF RECON,ioos:station:SCCF:13:1,2017-05-07T08:00:00Z,26.5255,-82.0032,2.34,-9999.0,1111122 
SCCF RECON,ioos:station:SCCF:13:1,2017-05-07T09:00:00Z,26.5255,-82.0032,2.28,-9999.0,1111122 
SCCF RECON,ioos:station:SCCF:13:1,2017-05-07T10:00:00Z,26.5255,-82.0032,2.25,-9999.0,1111122 
SCCF RECON,ioos:station:SCCF:13:1,2017-05-07T11:00:00Z,26.5255,-82.0032,2.26,-9999.0,1111122 
SCCF RECON,ioos:station:SCCF:13:1,2017-05-07T12:00:00Z,26.5255,-82.0032,2.34,-9999.0,1111122 
SCCF RECON,ioos:station:SCCF:13:1,2017-05-07T13:00:00Z,26.5255,-82.0032,2.46,-9999.0,1111122 
SCCF RECON,ioos:station:SCCF:13:1,2017-05-07T14:00:00Z,26.5255,-82.0032,2.539,-9999.0,1111122 
SCCF RECON,ioos:station:SCCF:13:1,2017-05-07T15:00:00Z,26.5255,-82.0032,2.59,-9999.0,1111122 
SCCF RECON,ioos:station:SCCF:13:1,2017-05-07T16:00:00Z,26.5255,-82.0032,2.63,-9999.0,1111122 
SCCF RECON,ioos:station:SCCF:13:1,2017-05-07T17:00:00Z,26.5255,-82.0032,2.599,-9999.0,1111122 
SCCF RECON,ioos:station:SCCF:13:1,2017-05-07T18:00:00Z,26.5255,-82.0032,2.5,-9999.0,1111122 
SCCF RECON,ioos:station:SCCF:13:1,2017-05-07T19:00:00Z,26.5255,-82.0032,2.381,-9999.0,1111122 
SCCF RECON,ioos:station:SCCF:13:1,2017-05-07T20:00:00Z,26.5255,-82.0032,2.294,-9999.0,1111122 
SCCF RECON,ioos:station:SCCF:13:1,2017-05-07T21:00:00Z,26.5255,-82.0032,2.229,-9999.0,1111122 
SCCF RECON,ioos:station:SCCF:13:1,2017-05-07T22:00:00Z,26.5255,-82.0032,2.16,-9999.0,1111122 
SCCF RECON,ioos:station:SCCF:13:1,2017-05-07T23:00:00Z,26.5255,-82.0032,2.119,-9999.0,1111122 
SCCF RECON,ioos:station:SCCF:13:1,2017-05-08T00:00:00Z,26.5255,-82.0032,2.13,-9999.0,1111122 
SCCF RECON,ioos:station:SCCF:13:1,2017-05-08T01:00:00Z,26.5255,-82.0032,2.225,-9999.0,1111122 
SCCF RECON,ioos:station:SCCF:13:1,2017-05-08T02:00:00Z,26.5255,-82.0032,2.32,-9999.0,1111122 
SCCF RECON,ioos:station:SCCF:13:1,2017-05-08T03:00:00Z,26.5255,-82.0032,2.4,-9999.0,1111122 
SCCF RECON,ioos:station:SCCF:13:1,2017-05-08T04:00:00Z,26.5255,-82.0032,2.46,-9999.0,1111122 
SCCF RECON,ioos:station:SCCF:13:1,2017-05-08T05:00:00Z,26.5255,-82.0032,2.49,-9999.0,1111122 
SCCF RECON,ioos:station:SCCF:13:1,2017-05-08T06:00:00Z,26.5255,-82.0032,2.47,-9999.0,1111122 
SCCF RECON,ioos:station:SCCF:13:1,2017-05-08T07:00:00Z,26.5255,-82.0032,2.4,-9999.0,1111122 
SCCF RECON,ioos:station:SCCF:13:1,2017-05-08T08:00:00Z,26.5255,-82.0032,2.329,-9999.0,1111122 
SCCF RECON,ioos:station:SCCF:13:1,2017-05-08T09:00:00Z,26.5255,-82.0032,2.27,-9999.0,1111122 
SCCF RECON,ioos:station:SCCF:13:1,2017-05-08T10:00:00Z,26.5255,-82.0032,2.22,-9999.0,1111122 
SCCF RECON,ioos:station:SCCF:13:1,2017-05-08T11:00:00Z,26.5255,-82.0032,2.19,-9999.0,1111122 
SCCF RECON,ioos:station:SCCF:13:1,2017-05-08T12:00:00Z,26.5255,-82.0032,2.24,-9999.0,1111122 
SCCF RECON,ioos:station:SCCF:13:1,2017-05-08T13:00:00Z,26.5255,-82.0032,2.36,-9999.0,1111122 
SCCF RECON,ioos:station:SCCF:13:1,2017-05-08T14:00:00Z,26.5255,-82.0032,2.46,-9999.0,1111122 
SCCF RECON,ioos:station:SCCF:13:1,2017-05-08T15:00:00Z,26.5255,-82.0032,2.531,-9999.0,1111122 
SCCF RECON,ioos:station:SCCF:13:1,2017-05-08T16:00:00Z,26.5255,-82.0032,2.59,-9999.0,1111122 
SCCF RECON,ioos:station:SCCF:13:1,2017-05-08T17:00:00Z,26.5255,-82.0032,2.61,-9999.0,1111122 
SCCF RECON,ioos:station:SCCF:13:1,2017-05-08T18:00:00Z,26.5255,-82.0032,2.57,-9999.0,1111122 
SCCF RECON,ioos:station:SCCF:13:1,2017-05-08T19:00:00Z,26.5255,-82.0032,2.45,-9999.0,1111122 
SCCF RECON,ioos:station:SCCF:13:1,2017-05-08T20:00:00Z,26.5255,-82.0032,2.354,-9999.0,1111122 
SCCF RECON,ioos:station:SCCF:13:1,2017-05-08T21:00:00Z,26.5255,-82.0032,2.27,-9999.0,1111122 
SCCF RECON,ioos:station:SCCF:13:1,2017-05-08T22:00:00Z,26.5255,-82.0032,2.207,-9999.0,1111122 
SCCF RECON,ioos:station:SCCF:13:1,2017-05-08T23:00:00Z,26.5255,-82.0032,2.147,-9999.0,1111122 
SCCF RECON,ioos:station:SCCF:13:1,2017-05-09T00:00:00Z,26.5255,-82.0032,2.111,-9999.0,1111122 
SCCF RECON,ioos:station:SCCF:13:1,2017-05-09T01:00:00Z,26.5255,-82.0032,2.16,-9999.0,1111122 
SCCF RECON,ioos:station:SCCF:13:1,2017-05-09T02:00:00Z,26.5255,-82.0032,2.29,-9999.0,1111122 
SCCF RECON,ioos:station:SCCF:13:1,2017-05-09T03:00:00Z,26.5255,-82.0032,2.398,-9999.0,1111122 
SCCF RECON,ioos:station:SCCF:13:1,2017-05-09T04:00:00Z,26.5255,-82.0032,2.45,-9999.0,1111122 
SCCF RECON,ioos:station:SCCF:13:1,2017-05-09T05:00:00Z,26.5255,-82.0032,2.51,-9999.0,1111122 
SCCF RECON,ioos:station:SCCF:13:1,2017-05-09T06:00:00Z,26.5255,-82.0032,2.53,-9999.0,1111122 
SCCF RECON,ioos:station:SCCF:13:1,2017-05-09T07:00:00Z,26.5255,-82.0032,2.47,-9999.0,1111122 
SCCF RECON,ioos:station:SCCF:13:1,2017-05-09T08:00:00Z,26.5255,-82.0032,2.38,-9999.0,1111122 
SCCF RECON,ioos:station:SCCF:13:1,2017-05-09T09:00:00Z,26.5255,-82.0032,2.32,-9999.0,1111122 
SCCF RECON,ioos:station:SCCF:13:1,2017-05-09T10:00:00Z,26.5255,-82.0032,2.28,-9999.0,1111122 
SCCF RECON,ioos:station:SCCF:13:1,2017-05-09T11:00:00Z,26.5255,-82.0032,2.25,-9999.0,1111122 
SCCF RECON,ioos:station:SCCF:13:1,2017-05-09T12:00:00Z,26.5255,-82.0032,2.25,-9999.0,1111122 
SCCF RECON,ioos:station:SCCF:13:1,2017-05-09T13:00:00Z,26.5255,-82.0032,2.351,-9999.0,1111122 
SCCF RECON,ioos:station:SCCF:13:1,2017-05-09T14:00:00Z,26.5255,-82.0032,2.47,-9999.0,1111122 
SCCF RECON,ioos:station:SCCF:13:1,2017-05-09T15:00:00Z,26.5255,-82.0032,2.549,-9999.0,1111122 
SCCF RECON,ioos:station:SCCF:13:1,2017-05-09T16:00:00Z,26.5255,-82.0032,2.601,-9999.0,1111122 
SCCF RECON,ioos:station:SCCF:13:1,2017-05-09T17:00:00Z,26.5255,-82.0032,2.639,-9999.0,1111122 
SCCF RECON,ioos:station:SCCF:13:1,2017-05-09T18:00:00Z,26.5255,-82.0032,2.63,-9999.0,1111122 
SCCF RECON,ioos:station:SCCF:13:1,2017-05-09T19:00:00Z,26.5255,-82.0032,2.55,-9999.0,1111122 
SCCF RECON,ioos:station:SCCF:13:1,2017-05-09T20:00:00Z,26.5255,-82.0032,2.439,-9999.0,1111122 
SCCF RECON,ioos:station:SCCF:13:1,2017-05-09T21:00:00Z,26.5255,-82.0032,2.345,-9999.0,1111122 
SCCF RECON,ioos:station:SCCF:13:1,2017-05-09T22:00:00Z,26.5255,-82.0032,2.27,-9999.0,1111122 
SCCF RECON,ioos:station:SCCF:13:1,2017-05-09T23:00:00Z,26.5255,-82.0032,2.189,-9999.0,1111122 
SCCF RECON,ioos:station:SCCF:13:1,2017-05-10T00:00:00Z,26.5255,-82.0032,2.12,-9999.0,1111122 
SCCF RECON,ioos:station:SCCF:13:1,2017-05-10T01:00:00Z,26.5255,-82.0032,2.114,-9999.0,1111122 
SCCF RECON,ioos:station:SCCF:13:1,2017-05-10T02:00:00Z,26.5255,-82.0032,2.224,-9999.0,1111122 
SCCF RECON,ioos:station:SCCF:13:1,2017-05-10T03:00:00Z,26.5255,-82.0032,2.35,-9999.0,1111122 
SCCF RECON,ioos:station:SCCF:13:1,2017-05-10T04:00:00Z,26.5255,-82.0032,2.43,-9999.0,1111122 
SCCF RECON,ioos:station:SCCF:13:1,2017-05-10T05:00:00Z,26.5255,-82.0032,2.48,-9999.0,1111122 
SCCF RECON,ioos:station:SCCF:13:1,2017-05-10T06:00:00Z,26.5255,-82.0032,2.52,-9999.0,1111122 
SCCF RECON,ioos:station:SCCF:13:1,2017-05-10T07:00:00Z,26.5255,-82.0032,2.51,-9999.0,1111122 
SCCF RECON,ioos:station:SCCF:13:1,2017-05-10T08:00:00Z,26.5255,-82.0032,2.44,-9999.0,1111122 
SCCF RECON,ioos:station:SCCF:13:1,2017-05-10T09:00:00Z,26.5255,-82.0032,2.37,-9999.0,1111122 
SCCF RECON,ioos:station:SCCF:13:1,2017-05-10T10:00:00Z,26.5255,-82.0032,2.32,-9999.0,1111122 
SCCF RECON,ioos:station:SCCF:13:1,2017-05-10T11:00:00Z,26.5255,-82.0032,2.29,-9999.0,1111122 
SCCF RECON,ioos:station:SCCF:13:1,2017-05-10T12:00:00Z,26.5255,-82.0032,2.26,-9999.0,1111122 
SCCF RECON,ioos:station:SCCF:13:1,2017-05-10T13:00:00Z,26.5255,-82.0032,2.304,-9999.0,1111122 
SCCF RECON,ioos:station:SCCF:13:1,2017-05-10T14:00:00Z,26.5255,-82.0032,2.43,-9999.0,1111122 
SCCF RECON,ioos:station:SCCF:13:1,2017-05-10T15:00:00Z,26.5255,-82.0032,2.526,-9999.0,1111122 
SCCF RECON,ioos:station:SCCF:13:1,2017-05-10T16:00:00Z,26.5255,-82.0032,2.59,-9999.0,1111122 
SCCF RECON,ioos:station:SCCF:13:1,2017-05-10T17:00:00Z,26.5255,-82.0032,2.643,-9999.0,1111122 
SCCF RECON,ioos:station:SCCF:13:1,2017-05-10T18:00:00Z,26.5255,-82.0032,2.67,-9999.0,1111122 
SCCF RECON,ioos:station:SCCF:13:1,2017-05-10T19:00:00Z,26.5255,-82.0032,2.62,-9999.0,1111122 
SCCF RECON,ioos:station:SCCF:13:1,2017-05-10T20:00:00Z,26.5255,-82.0032,2.5,-9999.0,1111122 
SCCF RECON,ioos:station:SCCF:13:1,2017-05-10T21:00:00Z,26.5255,-82.0032,2.401,-9999.0,1111122 
SCCF RECON,ioos:station:SCCF:13:1,2017-05-10T22:00:00Z,26.5255,-82.0032,2.33,-9999.0,1111122 
SCCF RECON,ioos:station:SCCF:13:1,2017-05-10T23:00:00Z,26.5255,-82.0032,2.25,-9999.0,1111122 
SCCF RECON,ioos:station:SCCF:13:1,2017-05-11T00:00:00Z,26.5255,-82.0032,2.175,-9999.0,1111122 
SCCF RECON,ioos:station:SCCF:13:1,2017-05-11T01:00:00Z,26.5255,-82.0032,2.14,-9999.0,1111122 
SCCF RECON,ioos:station:SCCF:13:1,2017-05-11T02:00:00Z,26.5255,-82.0032,2.18,-9999.0,1111122 
SCCF RECON,ioos:station:SCCF:13:1,2017-05-11T03:00:00Z,26.5255,-82.0032,2.33,-9999.0,1111122 
SCCF RECON,ioos:station:SCCF:13:1,2017-05-11T04:00:00Z,26.5255,-82.0032,2.43,-9999.0,1111122 
SCCF RECON,ioos:station:SCCF:13:1,2017-05-11T05:00:00Z,26.5255,-82.0032,2.48,-9999.0,1111122 
SCCF RECON,ioos:station:SCCF:13:1,2017-05-11T06:00:00Z,26.5255,-82.0032,2.539,-9999.0,1111122 
SCCF RECON,ioos:station:SCCF:13:1,2017-05-11T07:00:00Z,26.5255,-82.0032,2.56,-9999.0,1111122 
SCCF RECON,ioos:station:SCCF:13:1,2017-05-11T08:00:00Z,26.5255,-82.0032,2.53,-9999.0,1111122 
SCCF RECON,ioos:station:SCCF:13:1,2017-05-11T09:00:00Z,26.5255,-82.0032,2.46,-9999.0,1111122 
SCCF RECON,ioos:station:SCCF:13:1,2017-05-11T10:00:00Z,26.5255,-82.0032,2.4,-9999.0,1111122 
SCCF RECON,ioos:station:SCCF:13:1,2017-05-11T11:00:00Z,26.5255,-82.0032,2.36,-9999.0,1111122 
SCCF RECON,ioos:station:SCCF:13:1,2017-05-11T12:00:00Z,26.5255,-82.0032,2.323,-9999.0,1111122 